Location: Erp
(42.9417°N, 1.2009°E)
Time: 09:54:34
(UTC+00:00)

Spot 4 Rocket - Pass Details

Date: 12 January 2026
Orbit: 768 x 774 km, 98.8° (Epoch: 18 February)

Event Time Altitude Azimuth Distance (km) Brightness Sun altitude
Rises 17:44:24 0° 142° (SE) 3,239 7.1 -11.1°
Reaches altitude 10° 17:46:49 10° 135° (SE) 2,316 6.2 -11.6°
Maximum altitude 17:51:31 38° 68° (ENE) 1,166 4.5 -12.4°
Drops below altitude 10° 17:56:14 10° 1° (N) 2,330 6.3 -13.2°
Sets 17:58:41 0° 354° (N) 3,261 7.1 -13.6°
